Vorticity
4 4 3 1 1 0 2 0 0 3 3 5 3 7 6 3 8 5 7 -2 4 17 8 7 5 1 -2 -3 2 2 -3 -4 3 3 4 5 7 12 17 17 12 8 4 6 7 9 9 6 6 5 5 4 4 3 3 4 4 4 4 4 4 5 5 4 5 6 5 5 5 5 5 5 5 5 5 6 7 8 8 9 10 11 11 12 12 10 9 8 7 7 7 7 7 8 8 7 6
9 8 9 7 5 2 2 -0 -2 2 -0 5 5 3 6 2 -2 -5 7 9 6 8 2 2 4 6 2 4 8 7 5 5 9 7 7 10 14 20 25 18 12 11 6 6 9 10 8 5 5 5 5 3 3 3 3 4 4 4 4 4 4 5 5 5 5 6 6 5 6 5 5 4 4 4 4 5 7 7 7 9 10 12 11 11 11 10 8 8 8 7 6 6 7 9 8 6 5
11 11 12 12 12 8 6 4 -1 -0 -2 0 1 -0 1 4 -2 -17 -3 8 3 -3 -9 -6 -2 3 6 11 19 14 10 11 10 8 12 13 17 22 21 17 11 7 3 7 11 10 7 5 6 4 4 3 3 3 3 3 3 5 5 5 5 5 5 5 5 6 6 5 6 5 5 4 4 4 4 5 6 7 7 10 11 11 11 10 11 10 8 8 8 7 6 6 7 8 8 6 5
13 13 14 14 16 14 12 11 7 5 2 -1 -5 -3 2 13 17 -3 -0 8 9 9 4 7 7 14 17 10 6 5 9 13 12 10 12 13 18 19 16 13 6 2 3 9 11 8 6 5 5 4 4 3 3 2 3 4 4 5 5 5 5 6 6 6 6 6 6 6 6 6 5 4 4 3 4 5 6 6 6 10 12 11 10 9 11 11 8 8 8 7 7 6 7 8 8 7 6
14 13 14 14 14 15 16 14 15 15 10 9 1 -3 1 9 12 3 8 6 -1 2 4 10 11 10 1 -10 -8 2 11 13 16 15 13 12 14 16 12 5 1 3 7 11 9 6 6 5 4 4 4 3 2 3 4 4 4 5 5 5 5 6 7 7 6 6 7 6 6 5 5 4 3 3 4 5 6 5 6 9 11 11 10 8 9 11 9 7 7 7 7 6 7 8 8 7 6
12 12 13 13 13 13 14 14 15 18 16 18 13 8 9 5 -2 -7 5 5 -3 -4 -8 -5 -5 -9 -13 -8 -1 4 14 15 13 15 15 10 9 14 10 3 5 8 9 10 6 5 6 5 5 4 3 3 3 3 4 4 4 5 5 5 6 6 7 7 7 7 7 7 6 5 5 4 3 3 4 5 5 5 7 8 9 11 10 8 8 10 10 7 7 7 7 7 7 9 8 6 5
9 10 12 10 12 11 10 14 14 17 19 20 19 16 12 11 6 -6 1 3 2 4 -3 -1 -4 -9 -3 3 3 8 20 17 13 16 15 14 13 14 9 7 9 7 8 6 5 6 5 5 5 3 3 3 4 3 3 4 4 4 5 6 7 7 7 8 8 7 8 7 7 6 4 3 3 3 4 5 5 5 7 8 7 9 10 9 7 9 10 8 7 6 7 7 8 9 8 7 5
8 7 9 9 10 10 10 12 12 15 16 17 17 12 6 5 8 4 4 0 1 3 -2 5 6 2 4 5 10 17 19 12 15 18 13 15 15 11 9 10 7 6 6 5 6 5 4 5 3 2 3 3 3 2 3 4 4 4 5 7 7 8 8 8 9 8 7 8 7 5 4 3 4 4 4 5 4 5 6 6 6 7 9 8 7 8 9 9 7 6 6 6 8 8 8 8 6
7 6 7 8 7 8 9 10 12 14 13 16 18 20 18 3 2 5 1 -3 2 -1 -9 1 7 6 8 12 21 20 16 13 14 14 12 14 13 12 11 8 5 5 5 4 5 5 5 4 3 3 2 4 2 1 4 2 3 5 6 7 8 9 10 9 9 8 7 6 6 5 4 4 4 4 4 5 4 4 5 5 5 5 7 8 7 8 9 9 7 7 6 5 7 7 8 9 7
6 6 7 7 8 8 8 10 11 13 14 19 18 21 18 2 2 4 2 3 2 -1 1 7 4 8 14 15 15 11 10 12 14 12 11 11 11 13 8 4 5 6 5 5 5 5 5 3 3 2 2 4 2 2 3 1 3 5 5 5 6 7 8 9 9 8 7 5 5 5 4 4 4 4 4 4 4 3 4 3 3 4 6 7 7 7 8 9 8 7 6 5 5 6 7 8 8
7 7 7 6 8 7 8 10 8 13 20 23 19 15 6 -1 5 6 12 18 11 10 17 15 8 12 20 19 11 10 7 5 11 13 11 10 9 9 5 4 5 5 4 4 5 4 4 4 3 1 3 3 1 4 3 1 2 3 4 4 5 7 7 8 8 7 6 5 5 5 4 4 3 4 3 4 5 3 3 2 2 4 5 6 6 6 8 9 9 7 6 5 4 6 8 8 8
7 7 7 7 8 7 9 9 7 7 4 4 11 10 2 2 9 10 14 19 19 18 13 8 10 14 16 15 11 13 11 6 11 14 13 9 7 5 4 5 3 6 8 5 5 5 4 3 2 1 3 2 2 4 2 1 2 4 8 8 6 9 13 9 6 7 6 6 6 6 5 4 3 3 5 6 6 4 3 2 1 4 5 5 5 6 7 8 9 8 6 6 4 5 10 10 9
9 9 7 7 7 7 8 6 9 8 -8 -10 2 0 -2 3 5 12 20 14 10 6 3 5 10 14 13 14 13 11 10 10 13 14 10 5 5 4 3 4 -1 4 11 7 4 5 4 3 2 2 3 2 1 2 3 5 5 7 11 9 5 13 18 9 6 8 7 7 6 6 6 5 2 4 7 7 7 5 3 2 -1 5 8 5 5 5 6 8 8 9 7 7 6 3 6 8 9
7 8 8 8 8 7 7 5 12 16 1 -2 9 4 -1 -0 -2 19 36 18 7 5 4 9 15 16 9 8 7 3 6 11 14 11 6 4 3 3 4 3 -2 4 13 8 5 4 3 4 2 1 3 0 -1 2 6 8 6 5 11 9 5 15 18 8 8 10 8 8 7 6 6 5 3 5 6 6 8 5 3 2 -1 7 12 7 6 4 5 8 8 9 7 7 8 5 1 -1 2
7 8 8 8 10 8 9 10 15 15 -0 2 12 5 -2 -5 -3 26 38 7 -1 14 12 8 15 20 9 3 2 1 8 13 12 8 3 4 2 4 5 2 3 8 11 6 5 6 3 4 4 5 5 0 2 6 6 7 5 5 10 9 6 14 16 7 6 8 6 8 9 8 7 7 4 5 5 5 8 6 4 2 -0 8 10 7 8 6 5 7 7 8 7 6 8 9 5 -0 -2
8 9 9 9 11 11 14 16 24 22 4 8 16 7 4 5 3 15 18 -5 -10 5 15 11 3 9 10 11 12 6 6 10 11 8 4 4 3 5 2 0 6 6 6 5 6 7 8 7 5 9 7 1 5 8 9 7 4 5 7 9 8 12 15 9 5 4 1 5 11 9 8 6 4 5 5 4 6 8 8 3 1 5 4 4 10 7 5 7 7 7 7 7 7 8 9 6 4
8 8 8 11 14 13 16 15 20 21 4 4 12 7 5 11 11 8 3 -3 -1 1 7 10 0 0 4 7 13 8 7 11 11 7 5 5 5 4 -1 -2 0 1 5 7 5 4 10 11 4 7 4 2 7 8 9 6 4 5 5 9 10 11 13 9 6 6 3 4 9 10 10 7 8 10 4 3 6 8 9 4 3 5 2 6 12 9 5 7 8 8 7 6 7 8 8 8 8
9 10 10 12 13 9 9 13 12 6 -2 -3 0 5 6 6 8 9 9 3 5 8 5 7 4 4 3 3 8 7 8 11 11 8 7 6 4 4 -0 -2 -2 1 6 6 7 6 7 7 5 7 5 7 10 7 8 6 4 5 7 12 11 9 8 5 5 8 8 6 9 14 11 3 10 14 5 8 11 8 5 -0 5 8 4 9 14 9 4 7 9 9 7 5 7 7 8 8 7
10 8 13 15 12 9 2 8 12 3 3 -1 -6 6 13 9 6 8 13 7 2 7 8 7 5 3 4 5 5 4 4 7 9 9 9 7 4 4 2 -1 0 3 5 4 5 6 5 4 5 6 4 8 8 5 8 6 4 7 11 12 8 7 6 5 4 8 9 7 12 13 6 4 15 16 8 14 15 10 3 0 10 11 6 9 13 8 3 6 9 10 7 4 5 5 6 6 7
10 7 15 13 6 12 4 1 6 6 9 3 -1 7 5 3 9 9 9 9 8 7 3 3 5 5 4 4 4 5 4 5 8 9 10 9 4 4 3 -0 2 3 3 3 3 4 5 5 5 4 3 7 6 6 9 6 6 9 11 8 6 7 7 6 4 8 7 7 10 7 6 13 18 11 7 15 12 6 5 8 15 14 12 11 10 8 4 5 9 11 7 4 3 4 5 3 5
8 9 15 11 4 6 4 3 1 4 9 5 4 1 -6 -2 6 6 9 10 7 6 4 3 7 6 3 3 3 6 6 4 6 9 8 6 3 3 2 1 2 2 2 4 5 5 5 6 5 3 4 7 7 8 8 6 6 8 9 5 3 6 8 6 4 7 6 7 10 7 6 9 7 1 6 14 7 4 8 12 14 15 17 13 9 10 9 6 8 12 8 4 3 1 4 4 3
9 10 6 6 10 6 -1 1 -1 1 6 4 1 -7 -5 6 6 5 8 6 -0 2 5 4 6 5 2 3 3 6 7 5 7 8 6 3 4 3 2 3 3 3 3 3 4 3 4 5 4 3 8 11 9 7 7 7 7 9 8 4 2 5 8 8 7 8 7 9 11 10 7 7 8 5 9 11 7 10 12 14 14 13 15 13 9 9 13 9 5 12 10 4 3 2 3 5 3
5 8 8 5 10 11 2 -0 3 1 -0 4 1 -4 3 4 4 8 7 6 7 6 3 1 7 8 3 2 7 12 9 7 7 6 7 5 4 4 3 4 4 2 3 3 4 4 4 3 3 8 14 13 8 8 9 8 7 9 7 4 2 4 11 11 10 8 8 11 12 11 10 13 13 8 7 6 7 11 9 9 9 7 12 14 10 7 14 14 2 5 11 7 3 4 5 5 5
4 5 10 9 7 8 3 4 11 4 -3 3 3 1 8 7 7 13 13 13 13 10 6 4 10 15 15 12 12 14 10 7 6 5 6 6 4 4 5 4 4 3 3 5 4 4 4 4 7 13 14 11 10 10 8 5 4 5 7 7 4 6 13 13 11 10 9 11 10 7 6 10 11 8 7 6 9 11 9 9 7 8 11 11 10 7 12 18 8 -3 4 12 6 5 8 7 6
7 7 6 7 10 5 2 5 10 11 9 8 6 5 4 4 5 8 10 10 10 12 11 9 11 14 16 15 12 10 11 9 6 6 6 8 7 5 6 5 5 4 2 3 3 3 3 6 11 12 12 11 11 8 4 2 0 3 9 10 8 8 11 12 11 10 11 9 7 7 9 9 8 9 10 12 13 14 13 11 12 13 12 13 17 16 13 18 17 -1 -6 6 9 9 8 8 10
4 9 6 6 11 5 3 6 4 12 19 13 14 17 8 1 1 6 11 7 4 5 3 6 9 10 10 8 9 8 9 10 7 7 6 8 7 6 8 7 7 6 3 4 4 4 6 8 10 11 11 10 5 2 1 1 1 6 13 12 9 11 12 12 11 10 11 9 10 12 14 14 10 9 9 13 14 14 13 11 12 12 11 12 12 16 17 17 20 13 3 0 5 9 9 10 9
2 5 5 6 9 6 4 6 5 9 15 15 21 28 20 11 8 9 8 3 3 2 3 6 -2 -2 9 8 6 5 2 4 6 6 6 5 4 8 12 8 6 5 4 6 6 7 8 7 9 10 9 6 2 1 1 2 6 11 16 13 10 12 12 9 8 10 11 10 15 16 14 13 11 8 6 11 16 15 13 10 12 10 9 6 2 8 12 11 13 21 20 5 1 2 13 22 1
4 2 2 5 5 6 6 4 9 12 11 10 16 26 21 9 7 7 4 1 3 5 6 9 -0 -7 2 6 5 8 6 5 7 8 7 5 5 10 10 5 2 3 4 5 7 7 7 7 8 8 5 3 2 4 3 4 10 12 15 13 8 10 11 8 7 9 11 11 13 15 16 11 7 5 3 8 15 16 15 11 11 11 9 8 8 11 10 8 6 13 19 12 11 3 7 26 9
7 4 1 4 5 5 6 6 10 14 14 8 11 17 10 5 6 8 11 6 2 4 2 6 11 1 -7 -5 -2 2 4 6 8 9 9 6 7 10 7 3 2 3 4 4 6 6 6 7 6 6 3 1 2 2 3 7 11 11 12 9 6 9 11 9 9 9 11 13 14 16 15 7 2 3 1 5 10 13 15 12 10 11 13 14 13 14 13 13 9 7 10 10 17 12 1 10 11
9 9 4 3 5 6 6 7 10 15 14 9 13 10 8 20 14 4 8 8 5 6 3 4 9 6 -2 -1 3 3 3 6 9 10 11 10 9 9 4 3 4 3 4 4 5 5 5 7 6 5 2 0 2 2 5 10 12 10 7 5 6 11 10 8 9 8 6 8 12 10 4 -0 -0 3 3 4 7 8 10 8 5 5 8 10 8 10 10 11 11 9 10 11 17 18 9 6 8
9 9 8 3 4 7 7 7 7 14 14 11 17 9 13 28 11 -1 1 2 10 10 7 6 3 3 2 -0 2 6 7 8 8 8 13 14 9 7 4 3 4 4 8 9 7 6 5 5 6 4 1 0 3 4 7 10 9 7 5 4 6 9 8 6 7 7 6 5 4 0 -2 3 7 9 6 6 7 5 4 4 2 2 2 3 2 4 5 7 9 8 7 10 14 17 15 10 10
10 8 9 6 5 5 6 9 8 13 15 16 17 7 14 21 5 7 8 1 11 13 12 15 6 2 4 5 5 5 7 7 5 6 11 16 9 3 4 4 5 4 6 9 8 8 6 6 6 3 1 2 3 3 6 7 4 6 9 7 8 10 10 8 6 7 8 7 6 6 6 8 8 9 8 7 8 7 5 3 2 3 2 1 1 -0 1 2 2 3 3 3 5 11 16 13 9
10 11 9 5 7 8 6 7 10 11 9 13 17 13 18 15 3 9 13 10 11 5 8 19 13 4 3 10 13 6 7 10 10 6 5 15 12 2 1 2 4 5 4 5 3 4 6 6 6 3 1 2 4 4 6 9 6 9 11 8 8 9 8 9 7 6 9 9 7 8 9 9 8 8 9 8 7 8 6 5 5 5 3 1 1 -0 -1 0 0 1 3 4 4 6 12 14 12
11 15 12 7 3 8 11 5 11 11 9 21 23 22 19 5 -1 2 3 9 12 7 6 13 12 8 5 6 8 7 9 13 13 8 3 10 13 5 1 1 4 7 5 5 3 3 6 6 5 2 1 2 2 1 5 10 8 9 12 9 8 6 6 10 8 5 9 11 7 6 8 7 5 4 6 6 5 7 7 7 8 8 7 4 4 4 3 3 3 4 4 5 6 6 8 10 12
13 12 9 10 3 7 11 7 14 6 14 40 19 7 13 1 3 3 -3 3 9 13 7 5 5 3 5 2 3 8 9 6 4 9 12 13 13 7 2 1 2 4 4 4 4 5 6 6 5 2 1 1 -0 2 6 7 4 6 10 8 7 8 10 11 9 7 7 7 5 4 6 4 4 6 7 6 6 8 8 9 10 9 9 9 8 9 9 8 7 6 6 4 3 4 6 7 9
11 10 6 8 6 11 15 11 14 -1 20 52 9 -10 6 3 17 10 -6 0 6 11 7 4 4 -1 3 2 -1 1 -1 -4 -1 11 14 9 11 6 1 2 1 2 4 5 6 7 5 5 5 3 1 0 1 5 8 7 6 8 10 6 4 9 12 7 4 8 7 6 5 3 6 6 6 9 8 8 8 7 8 8 8 8 7 8 8 9 9 10 10 9 7 5 2 2 2 4 7
7 10 6 9 7 12 23 14 5 -6 17 44 6 -8 1 -3 15 9 -8 0 3 7 7 6 7 2 2 0 -1 2 0 3 11 17 11 4 8 6 3 5 4 5 6 7 7 6 6 6 6 3 1 0 1 6 7 6 6 8 10 8 6 7 8 4 4 7 6 6 5 4 7 5 4 6 3 4 5 4 5 5 5 6 5 6 5 5 6 8 10 10 9 8 5 3 2 2 2
4 6 1 12 14 15 25 9 -2 -8 5 36 14 -7 3 0 4 1 -2 5 3 8 10 9 13 12 14 13 15 17 12 15 17 11 4 6 10 7 6 4 3 6 5 5 6 5 7 7 6 3 2 2 1 7 8 5 4 7 9 8 8 7 4 4 6 7 8 8 5 4 4 2 5 6 2 2 3 2 4 5 5 6 6 7 6 6 8 8 8 8 9 9 8 6 5 4 2
4 2 -5 6 15 19 17 1 2 -11 -12 39 30 -14 -7 3 -0 1 5 4 -0 6 7 8 11 11 16 17 18 19 15 16 11 -0 -2 3 7 5 6 5 4 4 4 6 6 5 7 6 6 4 2 3 2 7 9 5 5 7 8 7 8 9 7 6 4 2 4 4 3 4 3 2 6 7 4 4 3 2 3 4 6 6 5 6 7 7 6 6 7 8 10 10 9 8 6 6 5
5 6 3 3 8 11 3 0 10 -8 -9 34 31 -5 -9 -2 1 4 10 11 8 9 6 8 11 7 8 6 5 8 8 10 7 3 2 1 1 2 6 6 5 5 6 7 6 6 8 7 7 4 1 2 2 6 8 5 5 6 8 7 7 9 9 8 8 6 5 1 0 4 3 1 4 7 8 6 4 4 2 2 4 4 4 4 3 4 7 12 13 10 9 10 10 9 8 7 6
5 6 8 4 4 -1 -3 16 16 1 13 23 15 13 1 -5 4 -0 1 9 9 13 9 4 8 7 6 6 7 9 7 8 8 6 4 3 3 5 6 6 5 6 7 7 6 6 7 7 7 4 3 1 1 4 6 6 5 5 7 6 6 8 8 8 9 9 9 5 2 2 2 1 1 3 7 7 4 5 4 3 5 5 5 4 3 8 13 13 10 9 11 13 12 9 8 8 7
5 7 8 3 9 -2 -6 24 20 4 11 -6 -9 13 -0 -5 11 3 -1 2 -2 5 9 4 6 5 0 1 6 9 5 3 2 2 4 6 6 6 5 5 5 7 7 6 6 6 6 7 7 5 4 2 1 2 5 7 5 5 6 5 6 8 9 9 9 8 7 7 6 4 4 5 3 -0 3 3 1 3 5 5 6 6 8 9 10 12 12 5 1 8 13 12 14 15 14 11 7
2 12 8 1 24 8 -18 8 13 1 -4 -23 -7 21 10 3 9 6 8 9 4 4 7 8 7 7 6 4 2 0 -3 -4 -3 2 9 9 7 7 6 7 7 6 6 6 6 6 6 7 7 6 4 2 2 1 4 6 5 5 6 6 6 7 9 9 8 8 7 6 6 5 6 7 5 3 3 2 2 5 6 6 5 4 6 8 5 3 5 5 4 8 6 0 3 9 13 15 12
3 18 5 2 30 0 -24 11 23 16 6 -4 21 39 24 5 -5 1 7 9 15 15 13 11 7 8 11 10 7 1 -2 -0 4 9 12 10 8 8 6 7 7 5 5 6 5 6 6 7 7 7 5 3 3 3 3 5 5 6 6 7 7 7 9 9 8 9 8 8 7 7 8 7 6 6 6 6 6 6 5 6 5 5 7 7 5 5 7 6 4 8 9 5 8 9 9 12 14
7 17 1 10 26 -15 -14 27 24 15 4 -4 18 24 14 2 -7 4 8 3 3 2 1 0 3 10 7 8 12 11 11 9 9 11 11 9 7 7 6 7 7 6 6 6 5 7 7 8 8 6 5 3 2 3 3 3 4 6 6 7 8 8 9 9 9 9 10 10 9 8 8 7 7 6 6 7 7 6 6 7 7 8 9 8 6 8 9 7 6 9 10 10 14 15 11 11 13
8 13 7 19 16 -19 -7 16 5 4 -2 -8 3 -4 -12 -12 -9 5 12 10 3 -7 -7 -5 4 9 4 7 9 9 15 16 14 11 7 8 7 7 7 7 7 6 7 7 7 7 7 7 7 6 5 4 3 3 3 4 4 5 6 7 7 7 7 8 9 10 10 10 9 9 8 7 7 7 7 7 6 7 8 9 9 8 8 9 7 7 9 8 6 6 9 10 12 11 10 12 14
7 11 15 16 9 -5 -11 -11 4 19 11 7 8 2 -0 -9 -8 4 5 10 14 9 8 12 19 14 3 5 3 -0 5 10 16 15 10 9 7 8 9 7 7 6 6 7 6 6 7 7 6 6 6 5 4 4 3 4 4 5 6 7 8 7 6 7 7 8 9 9 9 8 8 7 8 7 7 7 7 8 9 9 9 7 6 7 8 7 8 8 6 6 8 11 14 15 13 10 12
9 12 18 13 13 17 -7 -23 6 22 12 13 10 13 17 -1 -0 14 8 5 9 11 13 11 13 13 7 7 6 4 2 1 7 11 13 12 8 8 7 4 5 6 6 6 6 7 7 6 6 6 7 6 6 5 4 3 4 5 6 6 8 7 7 6 7 7 8 8 8 7 8 7 7 7 7 7 8 9 9 8 8 9 10 10 10 10 10 10 9 8 9 10 14 17 16 10 9
12 10 16 17 11 10 -6 -18 1 12 8 10 9 15 14 0 10 23 21 16 8 7 13 7 4 7 10 10 9 9 8 5 2 2 7 10 10 9 6 5 6 6 6 5 6 7 6 6 6 6 7 7 7 6 5 4 3 5 6 6 7 8 8 7 6 7 6 7 7 6 6 6 6 7 6 8 8 8 9 9 9 8 9 9 11 12 12 11 7 6 10 14 15 17 19 17 14
12 6 5 17 15 3 -6 -11 -6 6 13 10 11 23 18 3 3 5 8 13 10 9 11 10 11 11 8 8 8 9 10 9 7 6 7 7 10 10 6 5 5 4 5 5 7 7 4 4 6 7 7 7 6 6 5 5 3 4 6 6 7 7 9 8 7 7 6 7 6 5 5 5 5 5 5 7 7 7 8 8 6 5 5 7 9 9 9 8 5 5 9 12 15 18 20 21 21
6 11 7 9 15 3 -9 -7 -6 -2 12 14 9 13 6 -7 -6 1 9 11 7 6 5 5 9 7 4 4 7 11 12 11 11 12 12 9 10 10 8 7 6 6 7 6 7 5 3 5 6 7 7 6 7 6 6 6 4 4 5 6 7 6 7 8 8 7 7 6 6 5 5 5 4 4 5 7 8 8 9 7 4 3 3 5 7 8 6 4 4 6 8 10 14 19 18 17 21
5 15 6 -2 14 11 -8 -7 -4 -4 8 13 6 2 -3 -7 -1 7 12 12 6 1 -0 4 6 5 7 10 12 12 8 10 13 13 11 9 11 12 9 6 5 4 4 4 5 4 3 4 5 6 6 6 7 6 6 7 5 5 6 6 7 7 7 8 8 8 7 7 6 6 6 6 6 5 4 7 8 8 7 5 3 3 4 5 6 6 5 5 5 6 8 9 13 20 21 17 18
10 9 -2 -0 22 27 7 -8 -12 -7 9 14 11 10 8 9 11 5 -0 3 6 5 4 7 10 11 15 16 16 13 10 11 13 10 9 11 14 12 7 4 3 2 3 4 5 4 3 3 4 5 5 5 5 5 5 6 6 7 6 6 5 6 6 7 8 9 8 7 6 6 6 5 5 5 5 6 7 7 6 4 2 2 5 7 7 6 5 6 6 5 7 10 14 21 21 15 13
5 10 18 21 19 22 23 9 -14 -21 -6 9 13 11 8 8 4 -2 -3 -1 -1 2 4 2 2 8 13 13 10 11 13 12 9 7 8 12 15 13 10 9 7 5 4 5 4 3 2 2 3 4 4 5 5 5 5 4 5 7 6 6 5 5 6 6 8 9 8 7 6 6 6 5 6 6 6 6 6 7 6 3 2 2 5 7 7 6 5 7 6 5 7 11 17 23 21 16 15
2 9 31 25 -1 0 16 19 9 -8 -16 -8 -1 -0 4 4 0 1 6 5 -1 -1 0 -4 -9 -7 -1 2 3 7 10 9 11 10 8 10 11 11 10 8 6 5 5 5 3 2 2 1 3 4 4 6 6 6 5 4 4 5 6 7 6 6 7 7 8 9 8 8 7 7 6 6 5 5 6 7 6 7 6 4 3 4 6 7 6 5 5 6 5 4 7 14 23 28 23 15 15
12 5 25 23 -6 -8 5 11 21 20 9 5 -2 -5 -3 -5 -2 6 4 -1 -2 -1 1 2 1 -2 0 1 0 4 6 6 11 13 11 11 8 7 6 4 4 5 5 5 2 1 1 1 2 4 5 5 5 5 5 4 3 3 6 9 9 8 7 7 8 8 8 8 8 8 7 6 5 5 6 6 6 6 5 5 5 5 7 7 5 6 6 5 4 4 6 13 26 31 23 15 16
17 3 16 24 -3 -14 3 10 8 8 13 21 18 13 11 2 -2 2 2 1 3 3 2 3 6 7 8 8 6 5 5 5 6 10 12 11 7 5 4 3 6 8 7 5 1 0 2 1 2 4 4 3 3 4 5 4 1 3 8 10 9 8 8 8 8 8 8 9 9 8 7 6 5 5 6 6 6 6 5 5 6 6 8 7 5 5 5 4 5 6 6 10 24 32 25 19 19
16 10 8 22 10 -9 -5 2 5 1 -2 3 12 20 28 27 19 9 6 7 8 9 11 9 10 13 12 13 13 10 8 7 8 10 12 12 10 8 5 6 9 10 7 2 0 1 1 1 2 3 3 3 3 5 4 2 2 5 10 10 9 8 9 9 8 9 9 9 9 9 7 7 5 5 6 6 6 5 5 6 6 7 8 8 6 5 5 6 7 8 7 9 22 32 28 20 16
Height
5868 5869 5870 5870 5871 5872 5872 5873 5875 5877 5877 5879 5883 5887 5890 5891 5890 5890 5889 5885 5881 5880 5882 5884 5884 5886 5887 5889 5892 5894 5894 5892 5890 5888 5887 5888 5889 5890 5891 5890 5888 5888 5889 5888 5887 5887 5886 5885 5884 5884 5883 5882 5882 5882 5882 5881 5880 5879 5878 5877 5876 5876 5874 5873 5872 5871 5870 5869 5868 5868 5867 5866 5865 5864 5864 5863 5862 5862 5861 5860 5859 5858 5857 5856 5855 5855 5854 5853 5853 5852 5851 5851 5850 5850 5850 5850 5848
5865 5866 5866 5867 5868 5869 5869 5870 5872 5874 5875 5877 5883 5886 5887 5888 5885 5885 5884 5878 5877 5878 5878 5880 5881 5883 5886 5888 5890 5892 5892 5890 5890 5887 5887 5887 5888 5888 5887 5886 5886 5887 5887 5886 5886 5885 5884 5884 5883 5883 5882 5882 5881 5881 5881 5880 5880 5879 5878 5877 5876 5875 5874 5872 5871 5870 5869 5869 5868 5867 5866 5865 5864 5864 5863 5862 5862 5861 5861 5860 5859 5858 5857 5856 5855 5855 5854 5853 5853 5852 5851 5850 5850 5850 5850 5850 5849
5862 5863 5863 5864 5865 5866 5866 5867 5869 5871 5873 5875 5882 5886 5884 5883 5881 5881 5879 5873 5877 5879 5877 5877 5878 5881 5883 5885 5888 5889 5888 5887 5887 5886 5886 5886 5886 5886 5885 5884 5885 5885 5885 5884 5884 5883 5883 5882 5882 5882 5881 5881 5881 5881 5880 5880 5879 5878 5877 5876 5875 5874 5873 5871 5870 5869 5868 5868 5867 5867 5866 5865 5864 5863 5863 5862 5862 5861 5861 5860 5859 5858 5857 5856 5855 5854 5854 5853 5853 5852 5851 5850 5850 5850 5850 5850 5849
5858 5859 5860 5861 5862 5863 5863 5863 5866 5869 5871 5873 5880 5884 5880 5879 5878 5878 5878 5874 5877 5878 5876 5877 5877 5878 5879 5882 5884 5885 5884 5884 5885 5884 5884 5884 5885 5884 5883 5883 5884 5883 5882 5882 5882 5882 5881 5881 5881 5881 5881 5881 5880 5880 5880 5879 5878 5878 5877 5875 5874 5873 5872 5870 5869 5868 5868 5867 5867 5866 5865 5864 5864 5863 5863 5862 5862 5861 5861 5860 5859 5858 5857 5856 5855 5854 5854 5853 5853 5852 5851 5851 5850 5850 5850 5850 5850
5855 5856 5857 5858 5859 5860 5860 5860 5863 5866 5869 5872 5877 5881 5878 5877 5877 5876 5877 5876 5876 5874 5873 5874 5876 5877 5877 5879 5881 5883 5883 5882 5882 5881 5882 5882 5883 5882 5882 5883 5882 5881 5881 5881 5881 5880 5880 5880 5880 5880 5880 5880 5880 5880 5879 5878 5878 5877 5876 5874 5873 5872 5871 5870 5869 5868 5867 5867 5867 5866 5865 5864 5863 5863 5863 5862 5862 5861 5860 5860 5859 5858 5856 5855 5855 5854 5854 5853 5853 5852 5851 5851 5851 5850 5850 5850 5850
5853 5854 5854 5856 5856 5857 5858 5859 5861 5863 5867 5870 5873 5878 5876 5874 5874 5874 5875 5875 5873 5872 5871 5871 5873 5876 5876 5877 5879 5881 5881 5880 5879 5879 5880 5880 5881 5881 5881 5882 5881 5879 5879 5880 5879 5879 5879 5879 5879 5880 5880 5880 5880 5879 5878 5878 5877 5876 5875 5873 5872 5871 5870 5869 5868 5867 5867 5867 5866 5865 5865 5864 5863 5862 5862 5862 5861 5861 5860 5859 5859 5857 5856 5855 5855 5854 5854 5853 5853 5852 5851 5851 5851 5851 5850 5850 5850
5850 5851 5852 5853 5854 5855 5856 5857 5860 5862 5865 5867 5870 5873 5871 5867 5869 5871 5872 5873 5872 5871 5870 5869 5871 5873 5875 5875 5877 5878 5879 5877 5877 5878 5878 5878 5879 5880 5880 5880 5879 5878 5878 5878 5878 5878 5878 5879 5880 5880 5880 5879 5879 5878 5878 5877 5876 5875 5874 5873 5872 5871 5870 5869 5868 5867 5866 5866 5866 5865 5864 5864 5863 5862 5861 5861 5861 5860 5860 5859 5858 5857 5856 5855 5855 5854 5854 5853 5853 5852 5852 5851 5851 5851 5850 5850 5850
5848 5849 5850 5851 5852 5853 5854 5856 5858 5860 5863 5864 5866 5868 5866 5863 5865 5869 5870 5870 5870 5869 5867 5869 5870 5872 5874 5875 5875 5875 5876 5876 5876 5876 5876 5876 5877 5878 5879 5879 5877 5877 5877 5877 5877 5877 5878 5879 5879 5879 5879 5879 5878 5878 5877 5876 5875 5874 5873 5872 5871 5870 5869 5868 5867 5866 5866 5865 5865 5864 5864 5863 5862 5862 5861 5861 5860 5860 5859 5859 5858 5857 5856 5855 5854 5854 5853 5853 5852 5852 5852 5851 5851 5850 5850 5850 5850
5846 5847 5848 5849 5850 5851 5853 5855 5857 5858 5860 5861 5863 5865 5864 5862 5864 5867 5867 5866 5867 5866 5865 5868 5869 5870 5873 5874 5873 5873 5874 5874 5874 5874 5874 5875 5876 5878 5879 5877 5876 5876 5876 5875 5876 5877 5878 5878 5879 5879 5878 5878 5877 5877 5876 5875 5874 5873 5872 5871 5870 5869 5868 5867 5866 5865 5865 5865 5864 5864 5863 5863 5862 5861 5860 5860 5859 5859 5859 5858 5857 5857 5856 5855 5854 5854 5853 5853 5852 5852 5852 5851 5851 5850 5850 5850 5850
5844 5845 5846 5847 5848 5850 5852 5854 5855 5856 5858 5859 5860 5861 5860 5860 5861 5863 5865 5865 5864 5863 5863 5866 5867 5868 5872 5872 5871 5872 5873 5873 5873 5873 5873 5874 5875 5877 5877 5875 5874 5875 5874 5874 5875 5876 5877 5878 5878 5878 5878 5877 5876 5875 5875 5874 5873 5872 5871 5870 5869 5868 5867 5866 5865 5865 5864 5864 5863 5863 5862 5862 5861 5861 5860 5859 5859 5859 5858 5858 5857 5856 5856 5855 5854 5854 5853 5852 5852 5852 5852 5851 5851 5851 5850 5850 5850
5841 5843 5844 5845 5847 5848 5850 5852 5854 5854 5856 5858 5857 5857 5856 5857 5859 5862 5866 5866 5863 5860 5860 5864 5865 5866 5869 5869 5870 5870 5871 5871 5871 5872 5872 5872 5873 5875 5875 5874 5873 5872 5872 5872 5873 5875 5876 5877 5877 5877 5876 5876 5875 5875 5874 5873 5872 5871 5870 5868 5867 5866 5866 5865 5865 5864 5863 5863 5862 5862 5861 5860 5860 5860 5860 5858 5858 5858 5857 5857 5856 5856 5855 5855 5854 5854 5853 5852 5852 5852 5851 5851 5851 5851 5850 5850 5850
5839 5840 5842 5843 5845 5847 5848 5850 5851 5852 5853 5855 5855 5856 5855 5855 5859 5863 5868 5866 5861 5857 5857 5862 5862 5864 5867 5867 5868 5869 5869 5870 5870 5871 5871 5871 5872 5873 5872 5871 5870 5869 5869 5871 5873 5875 5876 5876 5876 5876 5875 5875 5875 5874 5873 5873 5872 5870 5869 5867 5866 5865 5865 5865 5864 5863 5862 5862 5862 5861 5860 5859 5859 5860 5860 5858 5857 5857 5857 5856 5856 5855 5855 5854 5854 5853 5852 5852 5851 5851 5851 5851 5851 5850 5850 5850 5850
5836 5838 5839 5841 5843 5845 5846 5847 5848 5849 5850 5851 5852 5853 5853 5855 5860 5863 5865 5862 5858 5856 5856 5859 5860 5863 5865 5865 5867 5868 5868 5869 5869 5870 5870 5870 5870 5870 5870 5869 5868 5868 5870 5873 5875 5876 5876 5875 5875 5875 5874 5874 5874 5873 5872 5872 5871 5869 5867 5866 5865 5864 5864 5864 5863 5862 5862 5861 5861 5860 5859 5859 5859 5859 5860 5859 5857 5856 5856 5856 5855 5855 5854 5854 5853 5853 5852 5851 5851 5851 5851 5851 5850 5850 5850 5850 5850
5834 5835 5837 5839 5841 5843 5844 5845 5847 5847 5847 5849 5849 5850 5852 5856 5859 5860 5861 5858 5854 5855 5855 5857 5859 5862 5863 5863 5865 5866 5867 5868 5868 5868 5868 5868 5869 5869 5868 5867 5868 5870 5873 5876 5876 5875 5874 5874 5874 5873 5873 5873 5872 5872 5871 5870 5869 5868 5866 5865 5864 5864 5864 5863 5863 5862 5861 5861 5860 5860 5859 5859 5859 5859 5859 5859 5857 5856 5856 5855 5855 5854 5854 5853 5852 5852 5851 5851 5850 5850 5850 5850 5850 5850 5849 5849 5849
5831 5833 5835 5837 5839 5841 5842 5843 5845 5845 5845 5847 5848 5849 5852 5855 5858 5859 5858 5854 5851 5853 5854 5856 5858 5859 5861 5863 5864 5865 5866 5867 5867 5867 5867 5867 5868 5867 5865 5866 5868 5870 5873 5874 5874 5872 5872 5873 5872 5872 5872 5872 5871 5870 5870 5869 5868 5867 5866 5865 5864 5863 5863 5863 5862 5861 5860 5860 5860 5860 5859 5859 5859 5859 5859 5858 5857 5856 5855 5855 5854 5854 5853 5853 5852 5851 5851 5850 5850 5849 5849 5849 5849 5849 5849 5848 5848
5829 5831 5833 5836 5838 5839 5841 5842 5844 5844 5844 5845 5845 5847 5850 5852 5856 5857 5854 5850 5849 5852 5854 5855 5857 5859 5861 5862 5862 5864 5865 5865 5866 5865 5865 5866 5867 5866 5863 5865 5868 5869 5871 5871 5870 5871 5872 5872 5871 5871 5871 5871 5870 5870 5869 5868 5867 5866 5865 5864 5863 5863 5862 5862 5861 5860 5860 5860 5860 5859 5859 5859 5858 5857 5857 5857 5857 5856 5855 5854 5854 5853 5852 5852 5851 5850 5850 5849 5849 5848 5849 5849 5849 5848 5848 5848 5847
5826 5829 5831 5834 5836 5837 5839 5840 5841 5842 5841 5842 5842 5843 5847 5850 5853 5853 5851 5849 5849 5852 5853 5854 5856 5859 5860 5860 5861 5862 5863 5864 5864 5864 5864 5865 5865 5864 5862 5864 5866 5868 5869 5869 5869 5870 5870 5870 5870 5870 5869 5869 5869 5869 5868 5867 5866 5865 5864 5863 5863 5863 5862 5861 5860 5859 5859 5859 5859 5859 5858 5857 5856 5855 5855 5855 5855 5856 5855 5854 5852 5851 5851 5850 5850 5850 5849 5849 5848 5848 5848 5848 5848 5848 5847 5847 5847
5824 5827 5830 5832 5833 5834 5835 5836 5838 5838 5838 5839 5840 5840 5844 5849 5850 5850 5850 5849 5850 5851 5851 5853 5855 5857 5858 5859 5860 5860 5861 5862 5862 5862 5862 5864 5864 5863 5862 5863 5865 5867 5869 5869 5868 5869 5869 5869 5868 5868 5868 5868 5868 5868 5867 5866 5865 5865 5864 5863 5863 5862 5861 5860 5860 5859 5859 5858 5858 5857 5857 5856 5855 5854 5853 5853 5854 5854 5854 5854 5852 5850 5849 5849 5848 5848 5848 5848 5847 5847 5847 5847 5847 5847 5847 5846 5846
5822 5825 5828 5829 5829 5831 5831 5833 5835 5835 5836 5837 5838 5839 5842 5846 5847 5849 5849 5847 5848 5850 5850 5851 5854 5856 5857 5858 5858 5858 5859 5860 5860 5860 5861 5863 5862 5862 5862 5862 5865 5867 5867 5867 5867 5867 5867 5867 5867 5866 5867 5867 5866 5866 5865 5865 5864 5864 5863 5862 5862 5861 5860 5860 5859 5858 5858 5857 5856 5856 5855 5854 5853 5853 5852 5852 5852 5852 5852 5852 5851 5849 5848 5847 5847 5846 5847 5847 5847 5846 5846 5846 5846 5846 5846 5845 5845
5820 5824 5826 5825 5826 5827 5827 5830 5833 5833 5834 5835 5836 5838 5840 5843 5846 5848 5847 5844 5846 5848 5850 5851 5853 5855 5855 5855 5856 5856 5857 5857 5858 5859 5861 5862 5861 5861 5861 5861 5863 5866 5866 5866 5865 5866 5866 5866 5866 5865 5865 5865 5865 5864 5864 5863 5863 5862 5861 5861 5860 5860 5859 5858 5858 5857 5856 5855 5855 5854 5853 5852 5852 5852 5851 5851 5850 5850 5849 5849 5848 5847 5846 5846 5845 5845 5845 5846 5846 5845 5845 5845 5845 5845 5845 5845 5844
5818 5822 5823 5823 5823 5823 5824 5827 5830 5831 5833 5834 5835 5837 5840 5841 5843 5845 5844 5842 5843 5846 5849 5850 5852 5853 5852 5853 5853 5854 5855 5855 5857 5859 5860 5860 5860 5860 5860 5860 5862 5864 5864 5864 5863 5864 5864 5864 5864 5864 5864 5864 5863 5862 5862 5862 5861 5861 5860 5859 5859 5858 5857 5856 5856 5855 5854 5853 5852 5852 5851 5851 5851 5850 5850 5850 5849 5848 5847 5846 5845 5845 5845 5844 5844 5844 5844 5844 5844 5844 5844 5844 5844 5844 5844 5844 5843
5816 5819 5820 5820 5821 5820 5821 5823 5825 5828 5830 5832 5835 5838 5839 5840 5841 5842 5843 5842 5842 5844 5847 5847 5849 5851 5850 5850 5851 5852 5853 5855 5856 5858 5859 5859 5859 5859 5859 5859 5860 5862 5862 5861 5861 5862 5862 5863 5863 5863 5863 5862 5861 5861 5860 5860 5860 5859 5858 5857 5856 5856 5855 5854 5854 5853 5851 5851 5850 5850 5850 5850 5850 5850 5849 5848 5847 5846 5845 5844 5843 5843 5843 5843 5843 5842 5842 5843 5843 5843 5843 5843 5843 5843 5843 5843 5842
5814 5816 5816 5818 5818 5818 5818 5819 5823 5825 5826 5830 5834 5835 5837 5839 5839 5840 5842 5841 5840 5841 5843 5844 5847 5849 5848 5848 5849 5851 5852 5854 5855 5856 5857 5857 5857 5858 5859 5859 5859 5860 5860 5859 5859 5860 5861 5862 5862 5862 5861 5860 5860 5859 5858 5858 5858 5857 5856 5855 5854 5853 5853 5852 5852 5851 5849 5848 5848 5848 5848 5848 5848 5848 5848 5847 5846 5845 5843 5842 5842 5842 5842 5842 5841 5841 5840 5841 5842 5842 5842 5842 5842 5842 5842 5842 5841
5811 5813 5814 5815 5816 5817 5816 5817 5820 5823 5824 5828 5831 5832 5835 5838 5838 5839 5840 5839 5837 5837 5840 5843 5845 5847 5847 5847 5849 5850 5851 5853 5854 5855 5855 5856 5856 5857 5858 5858 5859 5859 5858 5858 5858 5859 5860 5860 5861 5860 5859 5858 5858 5857 5856 5856 5855 5855 5853 5852 5851 5850 5851 5851 5851 5849 5847 5846 5846 5847 5847 5847 5847 5847 5846 5845 5844 5843 5842 5841 5841 5840 5841 5840 5839 5839 5839 5839 5839 5840 5840 5840 5840 5840 5840 5840 5839
5809 5810 5811 5813 5814 5815 5815 5814 5816 5822 5826 5827 5829 5831 5835 5838 5838 5838 5838 5837 5835 5834 5838 5841 5843 5845 5846 5847 5848 5849 5850 5852 5852 5853 5854 5854 5855 5855 5856 5857 5858 5858 5857 5856 5857 5858 5858 5858 5859 5858 5857 5856 5855 5855 5853 5853 5853 5852 5851 5850 5849 5849 5850 5850 5849 5847 5845 5845 5845 5845 5845 5845 5846 5845 5845 5843 5842 5841 5841 5840 5840 5839 5839 5839 5838 5838 5837 5837 5837 5838 5838 5838 5838 5838 5838 5839 5838
5807 5808 5808 5810 5813 5814 5813 5811 5813 5823 5827 5826 5828 5831 5833 5836 5836 5836 5836 5835 5834 5834 5837 5840 5842 5844 5845 5846 5846 5848 5849 5850 5851 5852 5852 5853 5853 5853 5854 5856 5856 5857 5856 5855 5856 5857 5857 5857 5857 5856 5855 5855 5853 5852 5851 5851 5850 5850 5849 5848 5848 5848 5849 5848 5846 5845 5844 5844 5844 5844 5844 5844 5844 5844 5843 5842 5841 5840 5840 5840 5840 5839 5838 5837 5837 5836 5836 5836 5836 5836 5837 5837 5836 5836 5837 5837 5837
5804 5805 5805 5807 5810 5812 5811 5809 5813 5821 5825 5825 5827 5829 5831 5833 5833 5833 5833 5833 5833 5833 5835 5838 5841 5843 5844 5844 5845 5846 5847 5848 5849 5849 5850 5851 5851 5852 5853 5854 5855 5855 5855 5854 5855 5855 5855 5855 5855 5854 5854 5853 5851 5850 5849 5849 5849 5848 5848 5848 5848 5847 5847 5846 5845 5843 5843 5843 5844 5843 5843 5843 5843 5843 5842 5841 5840 5840 5839 5839 5839 5838 5837 5837 5836 5835 5835 5835 5835 5835 5835 5835 5835 5835 5835 5835 5835
5800 5801 5802 5804 5807 5810 5809 5808 5813 5819 5821 5823 5824 5826 5828 5829 5830 5832 5832 5831 5830 5831 5833 5835 5838 5841 5842 5843 5843 5844 5845 5846 5846 5846 5848 5849 5851 5851 5851 5852 5853 5854 5853 5853 5853 5854 5854 5853 5853 5852 5851 5851 5849 5848 5848 5847 5847 5847 5847 5847 5847 5846 5846 5845 5843 5843 5842 5842 5842 5842 5842 5842 5842 5841 5841 5840 5840 5839 5838 5838 5838 5837 5836 5836 5835 5834 5834 5834 5834 5833 5833 5833 5834 5833 5832 5832 5832
5796 5798 5801 5803 5804 5807 5808 5808 5812 5816 5818 5820 5822 5823 5824 5826 5829 5831 5830 5828 5828 5829 5831 5832 5836 5839 5840 5841 5842 5843 5844 5845 5845 5845 5847 5848 5850 5851 5851 5851 5852 5852 5852 5852 5852 5852 5852 5852 5851 5851 5850 5848 5847 5846 5846 5846 5847 5847 5847 5847 5846 5846 5845 5843 5842 5842 5842 5840 5840 5840 5840 5840 5840 5840 5839 5839 5839 5838 5838 5837 5837 5836 5835 5835 5834 5833 5832 5832 5832 5831 5831 5832 5832 5831 5830 5829 5829
5794 5797 5800 5801 5802 5804 5806 5807 5810 5813 5815 5817 5819 5820 5822 5826 5829 5828 5826 5826 5826 5826 5829 5831 5833 5836 5837 5840 5841 5842 5844 5845 5845 5846 5848 5849 5851 5851 5851 5850 5850 5850 5851 5851 5851 5851 5851 5850 5850 5849 5848 5846 5845 5844 5845 5846 5846 5846 5845 5845 5845 5845 5844 5842 5841 5841 5840 5839 5839 5838 5839 5838 5838 5837 5837 5837 5837 5837 5837 5836 5836 5835 5834 5833 5833 5832 5831 5830 5830 5830 5829 5829 5830 5829 5828 5826 5825
5792 5795 5797 5798 5800 5802 5804 5806 5809 5811 5813 5815 5817 5818 5821 5825 5826 5824 5823 5825 5825 5824 5827 5830 5831 5833 5836 5839 5840 5841 5844 5844 5845 5847 5848 5849 5850 5850 5850 5850 5849 5848 5848 5848 5849 5850 5850 5849 5848 5847 5847 5845 5844 5843 5844 5845 5844 5843 5843 5843 5844 5844 5843 5841 5839 5838 5838 5838 5838 5838 5837 5837 5836 5836 5836 5835 5835 5835 5835 5835 5834 5833 5832 5832 5831 5831 5831 5830 5829 5828 5827 5826 5827 5827 5826 5825 5823
5789 5791 5794 5796 5797 5800 5802 5805 5807 5809 5811 5813 5815 5816 5819 5823 5822 5822 5822 5824 5823 5821 5823 5827 5829 5832 5835 5838 5839 5840 5842 5843 5845 5846 5847 5848 5848 5849 5849 5848 5848 5847 5847 5846 5846 5847 5848 5848 5847 5846 5846 5845 5843 5842 5843 5844 5843 5841 5841 5841 5842 5842 5841 5840 5839 5838 5837 5837 5837 5837 5836 5836 5835 5835 5835 5834 5834 5833 5833 5833 5833 5832 5831 5830 5830 5830 5830 5829 5828 5827 5826 5824 5824 5824 5824 5823 5822
5786 5789 5792 5794 5796 5798 5801 5804 5806 5806 5809 5811 5813 5815 5818 5821 5820 5820 5822 5822 5819 5819 5822 5826 5828 5830 5833 5834 5835 5837 5839 5841 5843 5844 5845 5845 5846 5847 5847 5847 5847 5847 5847 5846 5845 5845 5845 5846 5846 5845 5844 5843 5841 5840 5841 5842 5841 5840 5839 5840 5840 5840 5839 5838 5837 5837 5836 5836 5836 5835 5834 5834 5833 5833 5833 5833 5832 5832 5831 5830 5830 5830 5830 5829 5829 5828 5828 5828 5827 5826 5824 5823 5822 5821 5821 5821 5821
5785 5788 5791 5793 5795 5797 5799 5802 5804 5804 5807 5810 5813 5815 5816 5818 5817 5819 5821 5820 5817 5818 5822 5825 5826 5828 5830 5831 5832 5834 5836 5838 5841 5843 5843 5843 5844 5845 5845 5845 5845 5846 5846 5845 5845 5844 5844 5844 5844 5844 5843 5841 5839 5838 5839 5839 5840 5840 5839 5839 5839 5838 5837 5836 5835 5835 5834 5834 5833 5832 5832 5831 5831 5831 5831 5830 5830 5829 5829 5828 5828 5828 5828 5828 5827 5827 5826 5826 5825 5824 5823 5821 5820 5819 5819 5818 5818
5784 5787 5790 5792 5793 5795 5796 5799 5802 5803 5805 5809 5812 5813 5813 5814 5815 5816 5817 5816 5817 5819 5820 5821 5823 5824 5826 5828 5831 5832 5834 5837 5839 5840 5841 5841 5842 5842 5843 5843 5843 5843 5843 5843 5843 5842 5842 5842 5843 5843 5842 5840 5838 5837 5837 5837 5838 5839 5838 5837 5837 5837 5835 5833 5833 5833 5833 5832 5831 5830 5830 5829 5829 5829 5829 5828 5828 5827 5827 5826 5826 5826 5825 5825 5825 5825 5824 5823 5823 5822 5821 5820 5818 5817 5816 5816 5815
5783 5785 5788 5789 5792 5794 5794 5796 5800 5802 5804 5808 5810 5810 5811 5812 5811 5810 5811 5813 5817 5818 5817 5818 5820 5822 5824 5827 5830 5831 5833 5836 5838 5839 5839 5840 5840 5840 5841 5841 5842 5842 5842 5841 5841 5841 5840 5840 5841 5841 5840 5838 5837 5836 5836 5835 5835 5835 5835 5835 5834 5833 5833 5832 5831 5831 5831 5831 5830 5829 5828 5828 5827 5827 5827 5827 5826 5825 5825 5825 5824 5824 5823 5823 5823 5822 5822 5821 5820 5819 5818 5817 5816 5814 5813 5813 5812
5780 5783 5785 5788 5790 5792 5792 5793 5797 5801 5804 5807 5809 5809 5810 5809 5806 5806 5808 5810 5814 5816 5815 5817 5818 5821 5822 5825 5828 5830 5832 5834 5836 5837 5838 5838 5838 5839 5839 5839 5840 5840 5840 5840 5839 5839 5839 5839 5839 5839 5839 5838 5837 5836 5835 5834 5833 5832 5832 5832 5831 5830 5830 5831 5830 5829 5829 5829 5828 5828 5827 5826 5826 5826 5825 5825 5824 5823 5823 5822 5822 5821 5821 5820 5820 5820 5819 5818 5817 5816 5814 5813 5812 5811 5810 5809 5808
5776 5779 5783 5786 5789 5791 5791 5792 5796 5799 5803 5807 5809 5807 5805 5803 5802 5804 5806 5807 5811 5813 5815 5816 5818 5821 5822 5824 5827 5828 5830 5832 5834 5835 5836 5837 5837 5837 5837 5838 5838 5838 5838 5838 5838 5838 5838 5838 5838 5838 5838 5838 5837 5836 5835 5833 5832 5832 5831 5830 5829 5828 5827 5827 5826 5826 5827 5826 5826 5826 5825 5824 5824 5824 5824 5823 5822 5821 5821 5820 5819 5819 5818 5818 5817 5816 5816 5815 5814 5812 5811 5810 5809 5808 5807 5805 5804
5774 5776 5779 5783 5788 5790 5790 5792 5795 5798 5802 5805 5806 5803 5800 5801 5802 5803 5804 5805 5808 5812 5814 5816 5818 5820 5821 5823 5823 5824 5827 5829 5831 5833 5834 5834 5834 5835 5835 5836 5836 5837 5836 5836 5836 5836 5837 5837 5837 5837 5837 5837 5836 5836 5834 5833 5831 5830 5829 5828 5827 5826 5824 5823 5823 5823 5823 5823 5822 5822 5822 5822 5823 5823 5822 5821 5820 5819 5818 5817 5816 5815 5815 5814 5813 5813 5812 5811 5810 5808 5807 5806 5805 5805 5804 5802 5801
5772 5774 5776 5780 5785 5788 5789 5791 5793 5796 5800 5802 5801 5798 5797 5799 5801 5802 5803 5805 5807 5810 5812 5814 5816 5818 5819 5820 5820 5822 5824 5826 5828 5830 5831 5832 5832 5833 5834 5834 5835 5835 5835 5834 5835 5835 5835 5835 5836 5836 5836 5835 5835 5835 5833 5832 5830 5829 5828 5827 5826 5825 5823 5822 5821 5820 5821 5821 5819 5817 5818 5818 5820 5820 5819 5818 5817 5816 5815 5814 5813 5812 5812 5811 5810 5809 5807 5806 5806 5805 5804 5802 5801 5801 5801 5800 5799
5770 5773 5775 5779 5782 5786 5789 5790 5792 5794 5797 5797 5795 5796 5797 5798 5800 5802 5803 5805 5806 5808 5810 5812 5814 5815 5817 5818 5818 5820 5822 5824 5826 5827 5829 5829 5830 5831 5831 5832 5832 5832 5832 5833 5833 5833 5833 5833 5834 5834 5834 5833 5833 5833 5832 5831 5829 5827 5827 5826 5825 5824 5822 5821 5820 5819 5819 5819 5818 5816 5815 5814 5815 5815 5815 5814 5813 5813 5813 5812 5811 5810 5809 5808 5807 5805 5804 5803 5803 5803 5802 5800 5799 5799 5798 5798 5797
5768 5771 5774 5777 5780 5785 5789 5791 5791 5791 5792 5791 5791 5795 5795 5796 5798 5800 5802 5803 5804 5806 5808 5810 5812 5814 5815 5817 5817 5819 5820 5822 5823 5825 5826 5827 5828 5829 5829 5830 5830 5831 5831 5831 5831 5831 5831 5831 5832 5832 5831 5831 5831 5831 5830 5829 5828 5826 5825 5824 5823 5822 5821 5820 5819 5818 5817 5817 5816 5816 5814 5813 5812 5811 5810 5810 5810 5810 5810 5809 5807 5807 5806 5805 5804 5802 5801 5801 5800 5800 5799 5799 5799 5798 5796 5796 5795
5766 5769 5772 5776 5779 5782 5787 5790 5788 5787 5788 5789 5790 5793 5793 5793 5795 5797 5800 5802 5803 5805 5806 5808 5811 5812 5814 5815 5816 5817 5818 5819 5821 5822 5824 5825 5825 5826 5827 5828 5828 5829 5829 5829 5829 5829 5829 5829 5829 5829 5829 5829 5828 5828 5828 5827 5826 5824 5823 5822 5821 5821 5820 5818 5817 5816 5816 5815 5815 5814 5813 5812 5812 5810 5809 5808 5807 5808 5807 5806 5805 5803 5803 5802 5801 5800 5799 5798 5796 5796 5796 5796 5796 5795 5794 5793 5791
5764 5768 5770 5775 5779 5781 5784 5786 5786 5785 5786 5788 5789 5790 5790 5791 5793 5795 5798 5800 5801 5803 5805 5807 5809 5810 5811 5812 5813 5815 5816 5817 5818 5819 5821 5822 5823 5824 5825 5826 5826 5827 5827 5827 5827 5827 5827 5827 5827 5827 5827 5826 5826 5825 5825 5824 5824 5822 5821 5820 5819 5818 5818 5817 5816 5815 5814 5813 5812 5812 5811 5810 5810 5809 5808 5807 5806 5805 5804 5804 5802 5800 5799 5799 5797 5796 5796 5794 5793 5792 5791 5791 5791 5791 5790 5788 5787
5762 5766 5769 5773 5778 5780 5781 5784 5786 5784 5783 5784 5785 5786 5788 5789 5791 5793 5796 5797 5799 5801 5804 5805 5806 5807 5808 5809 5811 5812 5814 5814 5815 5817 5818 5819 5820 5821 5822 5823 5824 5824 5824 5825 5824 5825 5825 5824 5824 5824 5824 5824 5823 5823 5822 5821 5821 5820 5819 5818 5817 5816 5816 5815 5814 5813 5813 5812 5811 5810 5809 5809 5808 5807 5806 5805 5804 5802 5801 5801 5800 5798 5797 5796 5794 5793 5792 5791 5790 5789 5788 5787 5787 5787 5785 5784 5783
5760 5764 5768 5771 5775 5777 5778 5781 5784 5783 5780 5781 5781 5783 5786 5787 5788 5790 5792 5795 5797 5800 5802 5804 5804 5805 5806 5807 5808 5810 5811 5812 5813 5814 5815 5816 5817 5818 5819 5820 5821 5821 5822 5822 5822 5822 5822 5822 5821 5821 5821 5821 5820 5820 5819 5818 5818 5817 5816 5816 5815 5814 5813 5813 5812 5812 5811 5810 5809 5808 5808 5807 5806 5805 5803 5802 5801 5800 5799 5798 5797 5795 5794 5792 5791 5789 5787 5786 5786 5785 5785 5784 5783 5783 5782 5781 5780
5757 5761 5766 5769 5773 5775 5775 5777 5779 5778 5777 5779 5780 5781 5784 5785 5784 5785 5788 5793 5795 5798 5800 5801 5802 5802 5803 5805 5806 5807 5809 5810 5810 5811 5812 5812 5814 5815 5816 5817 5818 5818 5819 5819 5819 5819 5819 5819 5818 5818 5818 5818 5817 5817 5816 5815 5814 5814 5813 5812 5812 5811 5810 5810 5809 5809 5809 5808 5807 5806 5805 5804 5803 5802 5800 5799 5798 5797 5796 5795 5794 5793 5790 5789 5787 5785 5784 5782 5782 5781 5781 5781 5779 5778 5777 5776 5775
5754 5758 5762 5765 5769 5771 5771 5772 5773 5773 5773 5776 5780 5781 5782 5783 5781 5780 5783 5788 5792 5795 5798 5799 5799 5800 5800 5802 5803 5804 5806 5807 5808 5808 5809 5810 5811 5812 5813 5814 5815 5815 5816 5816 5816 5816 5816 5816 5816 5815 5815 5815 5814 5814 5813 5812 5811 5811 5810 5809 5808 5808 5807 5806 5806 5805 5805 5804 5803 5803 5802 5801 5800 5799 5798 5796 5795 5794 5793 5792 5790 5789 5787 5786 5784 5783 5781 5779 5778 5777 5777 5776 5775 5774 5773 5771 5771
5749 5754 5756 5760 5764 5765 5766 5768 5768 5768 5770 5774 5779 5781 5780 5779 5778 5776 5777 5783 5788 5792 5795 5796 5796 5797 5797 5798 5799 5801 5803 5804 5805 5805 5806 5807 5808 5809 5810 5810 5811 5812 5812 5812 5813 5813 5813 5813 5813 5813 5812 5812 5811 5811 5810 5809 5808 5808 5807 5806 5805 5804 5803 5803 5802 5801 5800 5800 5799 5798 5797 5797 5796 5795 5794 5793 5792 5791 5789 5788 5786 5785 5784 5783 5782 5780 5779 5777 5775 5774 5773 5772 5771 5770 5769 5768 5767
5744 5749 5752 5755 5758 5760 5762 5764 5765 5767 5768 5771 5775 5778 5778 5776 5776 5774 5774 5778 5783 5788 5791 5792 5792 5793 5794 5795 5796 5797 5799 5800 5802 5802 5803 5804 5804 5805 5806 5807 5808 5809 5809 5809 5810 5810 5810 5810 5810 5810 5810 5809 5808 5808 5807 5806 5805 5805 5804 5803 5802 5801 5800 5799 5798 5797 5797 5796 5795 5794 5794 5793 5792 5791 5790 5789 5787 5786 5785 5783 5782 5781 5780 5779 5778 5777 5775 5774 5772 5770 5769 5768 5765 5764 5763 5763 5762
5741 5746 5750 5751 5754 5757 5760 5762 5764 5766 5767 5769 5771 5773 5773 5773 5772 5771 5772 5775 5779 5784 5787 5787 5788 5789 5790 5792 5794 5795 5796 5797 5798 5799 5800 5801 5801 5802 5803 5804 5805 5805 5806 5806 5807 5807 5807 5807 5807 5807 5806 5806 5805 5805 5804 5803 5803 5802 5801 5800 5800 5799 5797 5796 5795 5794 5793 5792 5791 5790 5789 5788 5787 5786 5786 5784 5782 5781 5780 5779 5777 5776 5776 5775 5774 5773 5771 5770 5769 5767 5765 5764 5761 5758 5758 5758 5757
5739 5745 5747 5748 5752 5755 5758 5761 5762 5764 5765 5766 5768 5768 5768 5769 5768 5769 5770 5772 5775 5779 5782 5784 5785 5786 5787 5789 5791 5793 5794 5795 5795 5796 5796 5797 5798 5799 5800 5801 5801 5802 5803 5803 5804 5804 5804 5804 5804 5803 5803 5803 5802 5802 5801 5800 5800 5799 5798 5797 5796 5796 5795 5793 5792 5790 5789 5788 5787 5786 5785 5784 5782 5781 5781 5780 5778 5777 5776 5775 5774 5773 5772 5771 5770 5769 5767 5766 5765 5763 5761 5759 5756 5753 5752 5752 5751
5736 5741 5742 5745 5750 5753 5755 5758 5760 5761 5762 5762 5763 5763 5764 5765 5765 5765 5767 5770 5772 5775 5778 5780 5782 5783 5784 5786 5788 5789 5791 5792 5792 5792 5793 5794 5795 5796 5797 5797 5798 5799 5800 5800 5800 5801 5801 5801 5801 5800 5800 5799 5799 5798 5798 5797 5797 5796 5795 5794 5793 5792 5791 5790 5789 5787 5786 5785 5784 5782 5781 5780 5779 5777 5776 5775 5774 5773 5773 5771 5770 5770 5769 5767 5766 5764 5763 5762 5761 5759 5757 5754 5752 5749 5746 5746 5747
5733 5737 5741 5745 5749 5750 5751 5755 5756 5757 5758 5758 5759 5760 5761 5762 5762 5763 5765 5768 5770 5772 5775 5777 5779 5781 5782 5783 5784 5786 5787 5788 5789 5789 5790 5791 5792 5793 5793 5794 5795 5796 5796 5797 5797 5798 5798 5798 5797 5797 5796 5796 5796 5795 5794 5794 5793 5793 5792 5791 5790 5789 5788 5787 5786 5784 5783 5781 5780 5779 5777 5776 5775 5774 5772 5771 5770 5769 5768 5767 5767 5766 5765 5764 5762 5760 5759 5757 5756 5754 5752 5749 5746 5744 5742 5741 5742
5729 5734 5740 5743 5744 5745 5748 5749 5751 5753 5754 5754 5755 5756 5758 5759 5759 5761 5764 5766 5767 5769 5772 5774 5776 5778 5779 5780 5781 5783 5784 5785 5785 5786 5787 5788 5789 5789 5790 5791 5791 5792 5793 5793 5794 5794 5795 5794 5794 5793 5793 5792 5792 5791 5790 5790 5789 5788 5788 5787 5786 5785 5784 5783 5782 5780 5779 5778 5776 5775 5774 5772 5771 5770 5768 5767 5766 5765 5764 5763 5763 5762 5761 5760 5758 5757 5755 5753 5752 5750 5747 5744 5740 5739 5737 5736 5737
5725 5729 5735 5739 5740 5742 5744 5745 5747 5749 5751 5751 5752 5752 5754 5756 5757 5759 5762 5763 5764 5766 5769 5771 5773 5775 5776 5777 5778 5779 5780 5781 5782 5783 5784 5785 5785 5786 5787 5787 5788 5789 5789 5790 5790 5791 5791 5791 5790 5790 5789 5788 5788 5787 5786 5785 5785 5784 5783 5783 5782 5781 5780 5779 5778 5777 5775 5774 5773 5771 5770 5769 5767 5766 5764 5763 5762 5761 5760 5759 5758 5758 5757 5756 5755 5753 5751 5749 5747 5745 5743 5739 5736 5734 5733 5731 5731
5722 5725 5729 5734 5736 5738 5740 5742 5744 5746 5747 5748 5748 5749 5751 5753 5755 5756 5759 5760 5762 5764 5766 5769 5770 5771 5773 5774 5774 5775 5776 5777 5778 5779 5780 5781 5782 5782 5783 5784 5784 5785 5786 5786 5787 5787 5787 5787 5787 5786 5785 5785 5784 5783 5782 5781 5781 5780 5779 5779 5778 5777 5776 5775 5774 5772 5771 5770 5769 5767 5766 5764 5763 5762 5761 5759 5758 5757 5756 5755 5754 5753 5753 5752 5751 5749 5747 5745 5744 5741 5739 5736 5732 5730 5728 5727 5726
5719 5722 5725 5729 5733 5735 5737 5738 5740 5742 5744 5745 5746 5747 5749 5751 5753 5754 5756 5758 5760 5762 5764 5766 5767 5768 5769 5770 5770 5771 5772 5773 5774 5775 5776 5777 5778 5779 5780 5781 5781 5782 5782 5783 5783 5783 5784 5783 5783 5782 5781 5781 5780 5779 5778 5777 5777 5776 5775 5774 5774 5773 5772 5771 5769 5768 5767 5765 5765 5763 5762 5760 5759 5758 5756 5755 5754 5753 5752 5751 5750 5749 5749 5748 5746 5745 5743 5741 5740 5738 5735 5732 5729 5727 5725 5723 5722